This is the latest recevied weather packets stored in our database for station/object KE0LFX. If no packets are shown the sender has not sent any weather packets the latest 10 day(s).
| Time | Temp. | Humidity | Pressure | Rain* | Wind** | Luminosity | Snow |
|---|---|---|---|---|---|---|---|
| 1778090798 | 10.56° C | 43% | 1020.9 hPa | 0 mm | - | 813 W/m² | - |
| 1778090494 | 10.56° C | 44% | 1021.1 hPa | 0 mm | - | 345 W/m² | - |
| 1778090190 | 10.56° C | 43% | 1021 hPa | 0 mm | - | 296 W/m² | - |
| 1778089886 | 10.56° C | 43% | 1021 hPa | 0 mm | - | 235 W/m² | - |
| 1778089580 | 10.56° C | 43% | 1021 hPa | 0 mm | - | 282 W/m² | - |
| 1778089276 | 10° C | 43% | 1021.3 hPa | 0 mm | - | 236 W/m² | - |
| 1778088974 | 10° C | 44% | 1021.2 hPa | 0 mm | - | 296 W/m² | - |
| 1778088670 | 10.56° C | 45% | 1021 hPa | 0 mm | - | 264 W/m² | - |
| 1778088368 | 10° C | 44% | 1021.3 hPa | 0 mm | - | 294 W/m² | - |
| 1778088064 | 10° C | 46% | 1021.5 hPa | 0 mm | - | 316 W/m² | - |
| 1778087762 | 10° C | 46% | 1021.5 hPa | 0 mm | - | 257 W/m² | - |
| 1778087459 | 10° C | 44% | 1021.3 hPa | 0 mm | - | 247 W/m² | - |
| 1778087155 | 10° C | 45% | 1021.4 hPa | 0 mm | - | 210 W/m² | - |
| 1778086848 | 10.56° C | 45% | 1021.3 hPa | 0 mm | - | 271 W/m² | - |
| 1778086546 | 10.56° C | 44% | 1021.2 hPa | 0 mm | - | 276 W/m² | - |
| 1778086236 | 10.56° C | 44% | 1021.4 hPa | 0 mm | - | 258 W/m² | - |
| 1778085933 | 10.56° C | 44% | 1021.3 hPa | 0 mm | - | 280 W/m² | - |
| 1778085631 | 10° C | 45% | 1021.1 hPa | 0 mm | - | 299 W/m² | - |
| 1778085326 | 10° C | 45% | 1021.1 hPa | 0 mm | - | 176 W/m² | - |
| 1778085021 | 10° C | 45% | 1021.3 hPa | 0 mm | - | 166 W/m² | - |
| 1778084718 | 10° C | 44% | 1021.1 hPa | 0 mm | - | 163 W/m² | - |
| 1778084410 | 10.56° C | 46% | 1021.1 hPa | 0 mm | - | 175 W/m² | - |
| 1778084108 | 10° C | 44% | 1021.1 hPa | 0 mm | - | 167 W/m² | - |
| 1778083804 | 10° C | 46% | 1021.1 hPa | 0 mm | - | 169 W/m² | - |
| 1778083502 | 10° C | 45% | 1021.1 hPa | 0 mm | - | 168 W/m² | - |
* Rain latest hour (hover to see other rain measurements)
** Current wind speed in m/s (hover to see current wind gust speed)